Regional Weather Roundup
Issued by NWS

Home | Current Version | Previous Version | Text Only | Print | Product List | Glossary Off
Versions: 1 2 3 4 5 6 7 8 9 10 11 12 13 14 15 16 17 18 19 20 21 22 23 24 25 26 27

000
ASUS45 KTFX 241010
RWRMT
MONTANA REGIONAL WEATHER ROUNDUP
NATIONAL WEATHER SERVICE GREAT FALLS MT
400 AM MDT TUE APR 24 2018

NOTE: "FAIR" INDICATES FEW OR NO CLOUDS BELOW 12000 FEET WITH NO
SIGNIFICANT WEATHER AND/OR OBSTRUCTIONS TO VISIBILITY.

MTZ001>007-043-241100-
WEST OF THE DIVIDE

CITY           SKY/WX    TMP DP  RH WIND       PRES   REMARKS
KALISPELL      FAIR      27  23  85 CALM      30.45S
MISSOULA       FAIR      32  24  72 N5        30.47R
BUTTE            N/A     24  20  84 SE8       30.46F WCI  15
MULLAN PASS    FAIR      33  20  58 SE12      30.40R WCI  24
ANACONDA         N/A     27  21  80 S6        30.47F WCI  20
DEER LODGE       N/A     21  21 100 CALM      30.48F
HAMILTON         N/A     32  25  74 MISG      30.44F
RONAN            N/A     32  27  80 E5        30.46S
$$

MTZ008-052>055-241100-
SOUTHWEST MONTANA

CITY           SKY/WX    TMP DP  RH WIND       PRES   REMARKS
BOZEMAN        FAIR      28  26  92 SE3       30.49R
DILLON         FAIR      29  27  92 NE6       30.44S WCI  23
ENNIS          FAIR      27  23  86 CALM      30.47S
W YELLOWSTONE  FAIR      21  19  93 E7        30.40R WCI  13
THREE FORKS      N/A     28  26  92 CALM      30.42S
$$

MTZ009-010-012-014-046-048-049-054-241100-
EAST SLOPES AND CENTRAL MONTANA

CITY           SKY/WX    TMP DP  RH WIND       PRES   REMARKS
CUT BANK       FAIR      32  21  64 W5        30.41S
GREAT FALLS    FAIR      33  26  75 S14       30.46S WCI  23
HELENA         FAIR      30  26  85 N3        30.47F
CHOTEAU          N/A     32  21  64 S8        30.46S WCI  25
WHITE SULPHUR    N/A     21  19  93 S7        30.46F WCI  13
$$

MTZ011-013-016-021-045-047-050-051-241100-
NORTH CENTRAL MONTANA

CITY           SKY/WX    TMP DP  RH WIND       PRES   REMARKS
HAVRE          FAIR      29  26  89 W6        30.45R WCI  23
LEWISTOWN      FAIR      27  25  92 SE7       30.47R WCI  19
N BAR RANCH    FAIR      30  23  74 W3        30.48S
$$

MTZ017>020-022>027-061-062-241100-
NORTHEAST MONTANA

CITY           SKY/WX    TMP DP  RH WIND       PRES   REMARKS
GLASGOW        FAIR      35  24  64 CALM      30.44S
GLENDIVE       FAIR      33  30  88 NW6       30.46R WCI  28
JORDAN           N/A     32  29  88 CALM      30.45R
MALTA          CLEAR     32  30  93 SW3       30.44S
SIDNEY         FAIR      33  24  69 W3        30.47R
WOLF POINT     FAIR      25  20  81 CALM      30.47R
PLENTYWOOD       N/A     32  25  74 CALM      30.45S
POPLAR           N/A     30  21  69 CALM      30.47S
$$

MTZ028>42-056>058-241100-
SOUTHCENTRAL AND SOUTHEAST MONTANA

CITY           SKY/WX    TMP DP  RH WIND       PRES   REMARKS
BAKER          CLOUDY    33  33 100 NW8       30.44S WCI  26
BILLINGS       MOCLDY    34  33  96 SW10      30.48S WCI  26
LIVINGSTON     MOCLDY    28  25  88 CALM      30.48R
MILES CITY     FAIR      35  34  96 W8        30.47S WCI  29
BIG TIMBER     CLEAR     28  28 100 W8        30.50R WCI  20
FORSYTH          N/A     34  34 100 CALM      30.49R
$$

REGIONAL REPORTS...DAKOTAS

CITY           SKY/WX    TMP DP  RH WIND       PRES   REMARKS
WILLISTON      FAIR      27  23  85 CALM      30.45R
MINOT          FAIR      33  24  69 NW10      30.39R WCI  25
DICKINSON      MOCLDY    36  29  75 N8        30.38R WCI  30
BEACH          FAIR      34  34 100 NW8       30.47R WCI  27
CROSBY         FAIR      27  25  93 SW6       30.44R WCI  20
TIOGA          FAIR      27  27 100 W7        30.44R WCI  19
WATFORD CITY   FAIR      28  25  86 SW3       30.44R
BISMARCK       CLOUDY    40  35  83 N6        30.36S
GRAND FORKS    CLOUDY    41  35  79 N13       30.31R
FARGO          LGT RAIN  44  40  85 N17       30.26R
BUFFALO SD       N/A     34  32  92 NW10      30.35R WCI  26
RAPID CITY     LGT SNOW  35  32  88 NW31G38   30.35R FOG     WCI  22
$$

REGIONAL REPORTS...WYOMING/IDAHO/WASHINGTON

CITY           SKY/WX    TMP DP  RH WIND       PRES   REMARKS
GILLETTE       CLOUDY    32  30  92 N16       30.44R WCI  21
SHERIDAN       FLURRIES  34  32  92 W7        30.50R WCI  28
BUFFALO WY     FLURRIES  32  29  88 N14       30.46R WCI  22
CODY           FAIR      29  24  82 W5        30.47S
YELLOWSTONE LA   N/A     19  14  81 VRB5      30.42R
IDAHO FALLS    FAIR      33  28  81 NE8       30.36S WCI  26
SALMON         FAIR      32  27  81 CALM      30.45R
BOISE          FAIR      48  37  65 SE13      30.30R
SPOKANE        FAIR      44  29  55 E3        30.39R
$$

REGIONAL REPORTS...ALBERTA

CITY           SKY/WX    TMP DP  RH WIND       PRES   REMARKS
CALGARY        CLEAR     36  23  60 SW5       30.30S
CARDSTON         N/A     37  18  44 SW10        N/A  WCI  30
EDMONTON       CLEAR     39  23  52 SW8       30.22F
FORT MCMURRAY  PTCLDY    43  25  49 CALM      30.09F
HIGH LEVEL     CLEAR     39  25  56 S3        29.92F
LETHBRIDGE     CLEAR     34  23  64 SW9       30.35S WCI  26
LLOYDMINSTER   MOCLDY    36  28  75 S12       30.26F WCI  27
MEDICINE HAT   CLEAR     36  27  69 SW12      30.37S WCI  27
MILK RIVER       N/A     34  25  69 SW9         N/A  WCI  26
ONEFOUR          N/A     32  23  69 SE5         N/A
PEACE RIVER    PTCLDY    43  23  45 SW14      30.11F
PINCHER CREEK  CLEAR     37  21  52 W17       30.36F WCI  28
WATERTON GATE    N/A     39  18  41 SW16G24     N/A  WCI  30
$$

REGIONAL REPORTS...SASKATCHEWAN

CITY           SKY/WX    TMP DP  RH WIND       PRES   REMARKS
CORONACH         N/A     23  19  86 NW2         N/A
ESTEVAN        CLEAR     25  21  86 W7        30.43R WCI  17
MOOSE JAW        N/A     30  23  74 SW5         N/A
PRINCE ALBERT  CLEAR     28  27  93 E3        30.35F
REGINA         CLEAR     28  23  80 SW2       30.41R
ROCKGLEN         N/A     34  21  60 W3          N/A
SASKATOON      CLEAR     30  25  80 S7        30.37S WCI  23
SWIFT CURRENT  CLEAR     34  23  64 SW13      30.39S WCI  25
VAL MARIE        N/A     25  21  86 E2          N/A
$$




USA.gov is the U.S. government's official web portal to all federal, state and local government web resources and services.